Skip Page Navigation
NASA JPL Caltech
NASA Logo - Jet Propulsion Laboratory + View the NASA Portal
+ Near-Earth Object (NEO) Program
Search JPL
JPL Home Earth Solar System Stars & Galaxies Technology
JPL Solar System Dynamics
BODIES ORBITS EPHEMERIDES TOOLS PHYSICAL DATA DISCOVERY FAQ SITE MAP
JPL Small-Body Database Browser
Search: [ help ]  
172722 (2004 BV102)
Classification: Apollo [NEO]          SPK-ID: 2172722
Ephemeris | Orbit Diagram | Orbital Elements | Physical Parameters | Discovery Circumstances | Close-Approach Data ]

[ hide orbit diagram ]
Orbit Diagram
Note: Make sure you have Java enabled on your browser to see the applet. This applet is provided as a 3D orbit visualization tool. The applet was implemented using 2-body methods, and hence should not be used for determining accurate long-term trajectories (over several years or decades) or planetary encounter circumstances. For accurate long-term ephemerides, please instead use our Horizons system.
Orbit Viewer

Additional Notes: the orbits shown in the applet are color coded. The planets are white lines, and the asteroid/comet is a blue line. The bright white line indicates the portion of the orbit that is above the ecliptic plane, and the darker portion is below the ecliptic plane. Likewise for the asteroid/comet orbit, the light blue indicates the portion above the ecliptic plane, and the dark blue the portion below the ecliptic plane.

Orbit Viewer applet originally written and kindly provided by Osamu Ajiki (AstroArts), and further modified by Ron Baalke (JPL).


Orbital Elements at Epoch 2456400.5 (2013-Apr-18.0) TDB
Reference: JPL 77 (heliocentric ecliptic J2000)
 Element Value Uncertainty (1-sigma)   Units 
e .6992849232764576 1.0092e-07  
a 1.543814719759537 1.8323e-08 AU
q .4642483618994231 1.5962e-07 AU
i 7.227304961585466 1.0387e-05 deg
node 341.3858011130825 6.4132e-05 deg
peri 17.08211855582342 6.5182e-05 deg
M 315.9286729069783 2.671e-05 deg
tp 2456486.271858540721
(2013-Jul-12.77185854)
5.3473e-05 JED
period 700.6339747719745
1.92
1.2473e-05
3.415e-08
d
yr
n .5138203583649568 9.1476e-09 deg/d
Q 2.62338107761965 3.1136e-08 AU
  Orbit Determination Parameters
   # obs. used (total)      402  
   data-arc span      3372 days (9.23 yr)  
   first obs. used      2004-01-31  
   last obs. used      2013-04-25  
   planetary ephem.      DE405  
   SB-pert. ephem.      SB405-CPV-2  
   condition code      0  
   fit RMS      .54319  
   data source      ORB  
   producer      Otto Matic  
   solution date      2013-Apr-27 01:14:05  

Additional Information
 Earth MOID = .103294 AU 
 T_jup = 4.143 
[ show covariance matrix ]

Ephemeris | Orbit Diagram | Orbital Elements | Physical Parameters | Discovery Circumstances | Close-Approach Data ]

Physical Parameter Table
Parameter Symbol Value Units Sigma Reference Notes
absolute magnitude H 17.512 mag .44525 77 autocmod 2.5c

172722 (2004 BV102)          Discovered 2004-Jan-31 by LINEAR at Socorro (704)
Reference: 20071224/Numbers.arcLast Updated: 2007-12-22

[ show close-approach data ]
Ephemeris | Orbit Diagram | Orbital Elements | Physical Parameters | Discovery Circumstances | Close-Approach Data ]
ABOUT SSD CREDITS/AWARDS PRIVACY/COPYRIGHT GLOSSARY LINKS
FirstGov 2013-May-26 07:24 UT
(server date/time)  
NASA Home Page
Site Manager:   Donald K. Yeomans
Webmaster  Alan B. Chamberlin